Location: DARK SKY Beskydy - Park tmavé oblohy, www.darkskybeskydy.cz
(49.4926°N, 18.5016°E)
Time: 12:12:08
(UTC+02:00)

BlueWalker 3 - Pass Details

Date: 18 June 2024
Orbit: 480 x 491 km, 53.2° (Epoch: 23 July)

Event Time Altitude Azimuth Distance (km) Brightness Sun altitude
Rises 22:09:27 0° 219° (SW) 2,529 5.3 -9.1°
Reaches altitude 10° 22:11:43 10° 210° (SSW) 1,652 4.3 -9.3°
Maximum altitude 22:15:08 36° 143° (SE) 781 2.4 -9.6°
Drops below altitude 10° 22:18:35 10° 76° (ENE) 1,657 4.4 -9.9°
Sets 22:20:51 0° 68° (ENE) 2,538 5.4 -10.1°
